Precipitable_Water
0.27 0.26 0.26 0.25 0.26 0.26 0.25 0.25 0.25 0.24 0.23 0.23 0.23 0.23 0.24 0.24 0.23 0.23 0.24 0.24 0.25 0.24 0.25 0.25 0.24 0.23 0.23 0.24 0.26 0.27 0.29 0.28 0.28 0.25 0.25 0.27 0.26 0.26 0.24 0.23 0.22 0.20 0.18 0.18 0.18 0.20 0.21 0.21 0.18 0.19 0.26 0.29
0.30 0.29 0.27 0.26 0.27 0.26 0.26 0.26 0.26 0.25 0.25 0.24 0.23 0.23 0.23 0.24 0.24 0.24 0.24 0.24 0.24 0.24 0.24 0.24 0.23 0.22 0.22 0.24 0.25 0.26 0.27 0.27 0.26 0.24 0.24 0.26 0.25 0.24 0.23 0.22 0.20 0.19 0.19 0.19 0.18 0.17 0.18 0.19 0.17 0.17 0.19 0.20
0.28 0.29 0.28 0.27 0.28 0.27 0.27 0.27 0.27 0.27 0.27 0.26 0.25 0.24 0.23 0.23 0.23 0.24 0.23 0.23 0.24 0.23 0.23 0.23 0.22 0.21 0.23 0.25 0.25 0.25 0.27 0.27 0.25 0.23 0.24 0.24 0.24 0.23 0.22 0.21 0.20 0.18 0.19 0.18 0.18 0.17 0.16 0.16 0.16 0.15 0.14 0.15
0.28 0.30 0.28 0.28 0.29 0.29 0.29 0.29 0.29 0.29 0.29 0.28 0.27 0.25 0.24 0.22 0.21 0.21 0.21 0.22 0.21 0.21 0.23 0.21 0.21 0.22 0.25 0.25 0.24 0.26 0.27 0.26 0.23 0.24 0.24 0.23 0.23 0.22 0.21 0.20 0.19 0.18 0.19 0.19 0.18 0.17 0.16 0.14 0.14 0.13 0.13 0.13
0.28 0.29 0.29 0.30 0.31 0.30 0.30 0.30 0.30 0.29 0.29 0.27 0.26 0.25 0.24 0.22 0.20 0.20 0.20 0.19 0.21 0.23 0.21 0.21 0.21 0.23 0.24 0.25 0.25 0.26 0.26 0.25 0.23 0.25 0.24 0.23 0.24 0.23 0.22 0.21 0.19 0.17 0.18 0.18 0.18 0.17 0.16 0.15 0.12 0.13 0.13 0.13
0.29 0.30 0.31 0.30 0.28 0.28 0.29 0.29 0.29 0.29 0.28 0.27 0.26 0.25 0.24 0.23 0.21 0.20 0.19 0.20 0.21 0.22 0.21 0.21 0.22 0.23 0.23 0.25 0.26 0.26 0.26 0.24 0.23 0.24 0.24 0.24 0.24 0.22 0.21 0.20 0.17 0.16 0.15 0.16 0.18 0.17 0.16 0.14 0.13 0.13 0.13 0.13
0.28 0.29 0.29 0.28 0.27 0.26 0.27 0.27 0.27 0.27 0.26 0.26 0.25 0.25 0.24 0.23 0.21 0.20 0.20 0.20 0.21 0.22 0.23 0.23 0.23 0.22 0.23 0.25 0.25 0.25 0.25 0.23 0.22 0.23 0.23 0.22 0.21 0.21 0.19 0.17 0.16 0.16 0.15 0.15 0.16 0.16 0.14 0.14 0.13 0.13 0.13 0.13
0.27 0.27 0.27 0.26 0.25 0.25 0.25 0.25 0.25 0.25 0.26 0.25 0.25 0.24 0.24 0.23 0.22 0.21 0.21 0.20 0.20 0.21 0.21 0.22 0.22 0.22 0.23 0.23 0.23 0.23 0.22 0.20 0.20 0.21 0.21 0.19 0.19 0.19 0.17 0.16 0.16 0.16 0.16 0.15 0.16 0.16 0.15 0.14 0.14 0.13 0.13 0.13
0.26 0.26 0.26 0.25 0.25 0.24 0.24 0.24 0.24 0.24 0.24 0.24 0.24 0.24 0.23 0.22 0.23 0.22 0.21 0.19 0.19 0.20 0.21 0.22 0.22 0.23 0.22 0.23 0.22 0.22 0.21 0.20 0.19 0.19 0.18 0.18 0.17 0.16 0.16 0.16 0.16 0.15 0.15 0.15 0.15 0.15 0.15 0.15 0.15 0.14 0.14 0.13
0.26 0.26 0.25 0.24 0.24 0.23 0.23 0.23 0.23 0.23 0.23 0.23 0.22 0.23 0.22 0.23 0.23 0.22 0.21 0.20 0.19 0.20 0.21 0.22 0.22 0.23 0.23 0.23 0.22 0.21 0.19 0.19 0.18 0.18 0.17 0.17 0.16 0.16 0.16 0.16 0.16 0.16 0.15 0.15 0.15 0.15 0.15 0.15 0.15 0.15 0.14 0.14
0.25 0.25 0.24 0.24 0.24 0.23 0.23 0.23 0.23 0.22 0.23 0.23 0.23 0.23 0.23 0.23 0.23 0.22 0.22 0.22 0.21 0.21 0.23 0.23 0.22 0.23 0.23 0.22 0.21 0.21 0.19 0.18 0.18 0.17 0.16 0.16 0.16 0.16 0.16 0.16 0.16 0.15 0.15 0.15 0.15 0.15 0.15 0.15 0.15 0.15 0.15 0.14
0.25 0.25 0.25 0.24 0.24 0.24 0.23 0.23 0.23 0.23 0.23 0.24 0.24 0.24 0.25 0.25 0.24 0.25 0.25 0.24 0.23 0.22 0.23 0.23 0.23 0.23 0.22 0.22 0.21 0.21 0.19 0.18 0.17 0.17 0.17 0.16 0.16 0.16 0.16 0.15 0.15 0.15 0.15 0.15 0.15 0.14 0.14 0.15 0.15 0.15 0.15 0.15
0.27 0.27 0.26 0.26 0.26 0.25 0.26 0.26 0.26 0.25 0.26 0.26 0.26 0.26 0.27 0.27 0.27 0.27 0.26 0.25 0.24 0.23 0.22 0.23 0.23 0.22 0.21 0.21 0.21 0.21 0.20 0.19 0.17 0.17 0.17 0.16 0.16 0.16 0.15 0.15 0.15 0.15 0.15 0.15 0.15 0.15 0.14 0.14 0.15 0.15 0.14 0.14
0.28 0.28 0.27 0.27 0.27 0.27 0.27 0.27 0.28 0.29 0.30 0.30 0.29 0.29 0.28 0.28 0.28 0.28 0.27 0.26 0.25 0.24 0.22 0.22 0.22 0.21 0.21 0.21 0.21 0.21 0.20 0.19 0.18 0.17 0.17 0.17 0.16 0.16 0.15 0.15 0.15 0.16 0.15 0.15 0.15 0.15 0.15 0.15 0.15 0.15 0.14 0.14
0.29 0.29 0.29 0.29 0.30 0.30 0.30 0.30 0.30 0.29 0.29 0.29 0.29 0.29 0.28 0.28 0.28 0.28 0.27 0.26 0.25 0.24 0.22 0.22 0.22 0.21 0.21 0.21 0.21 0.21 0.20 0.20 0.19 0.18 0.18 0.17 0.16 0.15 0.15 0.16 0.16 0.16 0.16 0.15 0.15 0.16 0.15 0.15 0.15 0.14 0.14 0.14
0.29 0.29 0.30 0.30 0.31 0.31 0.32 0.31 0.30 0.29 0.29 0.28 0.27 0.27 0.27 0.27 0.27 0.27 0.26 0.25 0.24 0.23 0.23 0.22 0.22 0.22 0.21 0.20 0.21 0.21 0.21 0.20 0.20 0.19 0.18 0.17 0.17 0.17 0.17 0.16 0.16 0.16 0.16 0.16 0.16 0.16 0.15 0.15 0.15 0.14 0.14 0.14
0.29 0.30 0.30 0.30 0.30 0.30 0.31 0.31 0.30 0.29 0.28 0.28 0.27 0.27 0.27 0.27 0.26 0.26 0.25 0.25 0.24 0.24 0.24 0.23 0.22 0.22 0.22 0.22 0.22 0.22 0.21 0.21 0.21 0.19 0.18 0.18 0.18 0.17 0.16 0.16 0.15 0.16 0.16 0.16 0.16 0.16 0.16 0.15 0.15 0.15 0.14 0.14
0.29 0.30 0.30 0.30 0.30 0.30 0.30 0.30 0.30 0.30 0.29 0.28 0.28 0.27 0.27 0.27 0.27 0.27 0.26 0.26 0.25 0.25 0.24 0.24 0.23 0.23 0.23 0.23 0.23 0.23 0.22 0.21 0.21 0.20 0.19 0.18 0.17 0.16 0.16 0.16 0.16 0.16 0.15 0.16 0.16 0.16 0.16 0.15 0.15 0.15 0.14 0.13
0.30 0.29 0.29 0.29 0.29 0.29 0.29 0.29 0.30 0.30 0.30 0.29 0.28 0.28 0.28 0.28 0.28 0.28 0.27 0.26 0.26 0.25 0.25 0.24 0.24 0.24 0.24 0.24 0.23 0.23 0.23 0.22 0.21 0.20 0.19 0.18 0.17 0.17 0.16 0.16 0.16 0.16 0.16 0.16 0.15 0.16 0.16 0.15 0.15 0.15 0.14 0.13
0.31 0.30 0.30 0.29 0.29 0.29 0.29 0.29 0.29 0.30 0.30 0.29 0.29 0.28 0.28 0.28 0.28 0.28 0.27 0.27 0.26 0.25 0.25 0.25 0.25 0.25 0.25 0.24 0.24 0.24 0.23 0.23 0.21 0.20 0.19 0.18 0.18 0.17 0.16 0.16 0.16 0.16 0.16 0.16 0.15 0.16 0.16 0.15 0.15 0.14 0.13 0.13
0.32 0.31 0.30 0.30 0.29 0.29 0.30 0.29 0.29 0.30 0.29 0.29 0.28 0.27 0.27 0.27 0.27 0.28 0.27 0.27 0.26 0.26 0.25 0.25 0.26 0.26 0.25 0.25 0.24 0.23 0.23 0.22 0.22 0.21 0.19 0.18 0.18 0.18 0.17 0.16 0.16 0.15 0.16 0.15 0.15 0.15 0.15 0.15 0.15 0.13 0.13 0.13
0.33 0.32 0.32 0.31 0.30 0.30 0.29 0.30 0.31 0.31 0.29 0.28 0.27 0.27 0.26 0.27 0.27 0.28 0.28 0.28 0.27 0.26 0.26 0.26 0.25 0.25 0.25 0.25 0.25 0.24 0.24 0.23 0.22 0.21 0.20 0.19 0.19 0.18 0.17 0.16 0.16 0.16 0.16 0.16 0.15 0.15 0.15 0.15 0.15 0.14 0.14 0.14
0.34 0.33 0.32 0.31 0.31 0.30 0.30 0.30 0.31 0.31 0.29 0.28 0.27 0.26 0.26 0.26 0.26 0.27 0.28 0.28 0.28 0.26 0.26 0.26 0.26 0.25 0.24 0.25 0.24 0.24 0.24 0.23 0.22 0.21 0.21 0.19 0.19 0.19 0.18 0.17 0.17 0.16 0.16 0.15 0.15 0.15 0.15 0.15 0.15 0.14 0.14 0.14
0.32 0.32 0.31 0.30 0.31 0.31 0.31 0.30 0.30 0.29 0.29 0.28 0.27 0.26 0.26 0.26 0.26 0.26 0.27 0.27 0.27 0.26 0.26 0.26 0.25 0.25 0.24 0.25 0.25 0.24 0.24 0.23 0.22 0.22 0.21 0.20 0.19 0.18 0.18 0.19 0.18 0.17 0.16 0.16 0.15 0.15 0.16 0.15 0.15 0.14 0.14 0.14
0.29 0.29 0.30 0.31 0.31 0.31 0.31 0.30 0.29 0.28 0.28 0.28 0.27 0.27 0.27 0.26 0.25 0.25 0.25 0.26 0.26 0.26 0.26 0.26 0.25 0.24 0.24 0.24 0.24 0.24 0.24 0.24 0.23 0.22 0.22 0.21 0.20 0.19 0.18 0.17 0.18 0.17 0.17 0.16 0.15 0.15 0.15 0.15 0.14 0.14 0.14 0.14
0.29 0.29 0.29 0.29 0.29 0.30 0.29 0.29 0.28 0.27 0.26 0.26 0.26 0.26 0.26 0.26 0.26 0.25 0.25 0.25 0.25 0.25 0.25 0.25 0.25 0.24 0.24 0.23 0.23 0.24 0.25 0.25 0.24 0.23 0.22 0.22 0.21 0.20 0.19 0.17 0.17 0.17 0.17 0.15 0.14 0.13 0.13 0.13 0.14 0.14 0.14 0.14
0.30 0.31 0.30 0.29 0.28 0.27 0.26 0.27 0.27 0.26 0.26 0.26 0.25 0.25 0.26 0.26 0.26 0.26 0.25 0.25 0.25 0.24 0.24 0.24 0.24 0.23 0.23 0.23 0.23 0.23 0.24 0.25 0.25 0.24 0.22 0.21 0.21 0.20 0.19 0.18 0.18 0.18 0.18 0.15 0.16 0.16 0.14 0.12 0.11 0.11 0.13 0.15
0.30 0.29 0.28 0.27 0.27 0.27 0.26 0.25 0.26 0.27 0.26 0.25 0.25 0.25 0.25 0.25 0.25 0.25 0.25 0.25 0.25 0.24 0.24 0.24 0.23 0.23 0.23 0.23 0.23 0.23 0.24 0.25 0.25 0.24 0.23 0.21 0.21 0.20 0.18 0.18 0.17 0.18 0.18 0.17 0.16 0.13 0.13 0.12 0.12 0.09 0.11 0.12
0.27 0.27 0.25 0.25 0.25 0.25 0.23 0.23 0.23 0.23 0.23 0.24 0.23 0.23 0.23 0.23 0.24 0.25 0.25 0.25 0.25 0.24 0.24 0.23 0.23 0.23 0.22 0.22 0.22 0.22 0.23 0.24 0.25 0.24 0.24 0.23 0.21 0.20 0.19 0.18 0.18 0.18 0.19 0.18 0.19 0.16 0.13 0.12 0.11 0.11 0.12 0.12
0.25 0.24 0.23 0.21 0.20 0.19 0.19 0.18 0.18 0.17 0.17 0.17 0.17 0.18 0.19 0.20 0.21 0.23 0.24 0.25 0.25 0.25 0.25 0.24 0.23 0.22 0.22 0.21 0.21 0.21 0.22 0.24 0.24 0.24 0.23 0.23 0.22 0.20 0.19 0.19 0.18 0.17 0.18 0.18 0.18 0.18 0.16 0.15 0.12 0.11 0.12 0.11
0.24 0.23 0.22 0.21 0.20 0.19 0.18 0.17 0.18 0.19 0.18 0.18 0.17 0.17 0.16 0.16 0.17 0.18 0.20 0.22 0.24 0.24 0.25 0.25 0.25 0.23 0.22 0.21 0.21 0.21 0.21 0.22 0.23 0.24 0.24 0.23 0.22 0.21 0.19 0.19 0.18 0.17 0.17 0.17 0.18 0.18 0.17 0.16 0.16 0.15 0.12 0.10
Wind_Speed
30 30 30 30 29 29 29 28 28 28 28 28 28 28 28 28 28 28 29 29 28 29 29 29 29 30 30 30 30 30 30 31 31 31 31 31 31 32 32 33 33 34 35 36 36 36 37 37 38 38 39 38
30 30 30 30 29 29 28 28 27 27 27 27 27 27 27 28 28 28 28 28 28 29 29 29 30 30 31 31 31 31 31 31 31 31 31 31 32 32 32 33 34 34 35 35 36 37 38 38 38 39 39 40
30 29 29 29 29 29 28 28 27 27 27 27 26 26 27 27 28 28 28 28 29 29 30 30 31 31 31 31 31 31 31 31 31 31 31 31 32 32 33 33 34 34 35 35 36 37 38 39 39 39 40 40
30 29 29 29 29 28 28 28 28 27 27 27 26 27 27 27 28 28 28 29 29 30 30 30 31 31 32 32 32 32 31 31 31 32 32 32 32 32 33 34 34 34 35 36 36 37 38 39 39 40 40 41
29 29 29 29 29 29 28 28 28 28 27 27 27 27 27 28 28 28 28 29 30 30 30 31 31 32 32 32 32 32 32 32 32 33 33 33 33 34 34 34 34 35 35 36 37 37 38 39 39 40 41 41
29 29 30 29 29 29 29 29 29 28 28 28 28 28 28 29 29 29 30 30 30 31 31 31 31 32 32 32 32 32 32 32 33 33 33 34 34 35 35 35 35 36 36 37 37 38 39 39 40 40 41 42
29 30 30 30 30 30 30 29 29 29 29 29 29 29 29 30 30 30 30 30 31 31 31 32 32 32 32 32 32 32 33 33 34 34 34 35 35 36 36 36 36 36 37 37 38 39 39 40 40 41 42 42
30 30 30 30 30 30 30 30 30 30 30 30 30 30 30 30 31 31 31 31 31 31 31 32 32 32 32 32 32 33 33 34 34 34 35 36 36 36 36 36 37 37 38 38 39 39 40 41 41 42 42 43
31 31 30 30 31 31 30 30 31 30 30 30 30 30 30 31 31 31 31 31 31 31 31 32 32 32 32 32 33 34 34 35 35 35 36 36 36 36 37 37 38 38 38 39 40 40 41 41 42 43 43 44
31 30 30 30 31 30 30 30 30 30 30 30 30 30 31 31 31 31 31 31 31 31 32 32 32 33 33 34 34 35 35 35 36 36 37 37 37 37 38 38 38 39 39 40 40 41 42 42 43 43 44 44
30 30 30 30 30 30 30 30 30 30 30 30 30 30 30 30 30 31 31 31 31 32 32 33 33 34 34 35 36 36 36 36 36 37 37 38 38 38 39 39 39 40 40 40 41 42 42 43 43 44 45 45
30 30 30 30 30 30 30 30 30 30 30 30 30 31 30 30 31 31 31 32 32 33 33 34 35 35 36 36 37 37 37 37 37 38 38 39 39 39 40 40 40 41 41 41 42 42 43 43 44 45 45 46
29 29 29 29 29 29 30 30 30 31 31 31 31 32 31 32 32 32 33 33 34 34 35 35 36 36 37 37 38 38 38 38 38 39 39 40 40 40 41 41 42 42 42 42 43 43 43 44 44 45 46 46
28 28 29 29 29 30 30 31 31 32 32 32 33 33 33 33 33 34 35 35 35 36 36 37 37 37 38 38 38 39 39 39 40 40 40 41 41 42 42 42 43 43 43 43 43 44 44 44 45 46 46 47
28 28 29 29 30 31 31 32 32 33 33 34 34 34 35 35 35 36 36 37 37 37 38 38 38 38 39 39 40 40 40 41 41 41 41 42 43 43 43 43 44 44 44 44 44 44 45 45 46 46 47 47
29 30 30 31 31 32 32 33 33 34 34 35 35 36 36 36 37 37 38 38 38 39 39 39 39 40 40 41 41 41 42 42 42 43 43 44 44 44 44 44 44 45 44 44 45 45 45 45 46 46 47 47
31 31 32 32 33 33 34 34 35 35 36 36 37 37 37 38 38 39 39 39 40 40 40 41 41 41 41 42 42 43 43 43 44 44 44 44 44 44 44 44 45 45 45 45 45 45 45 46 46 47 47 46
32 33 33 34 35 35 35 36 36 37 38 38 38 39 39 39 39 40 40 41 41 41 42 42 42 42 43 43 43 44 44 44 44 44 44 44 44 45 45 45 45 45 45 45 45 45 46 46 46 46 46 46
33 34 35 35 36 36 37 37 38 39 39 40 40 40 41 41 41 42 42 42 42 43 43 43 43 44 44 44 44 45 45 45 45 45 45 45 45 45 45 45 45 45 45 45 45 45 45 45 46 45 45 46
34 35 35 36 37 37 38 39 39 40 41 41 42 42 42 43 43 44 44 44 44 44 44 44 45 45 45 45 45 45 46 46 46 45 45 45 45 45 45 45 45 45 45 45 45 45 45 45 45 45 45 45
35 36 36 37 38 39 39 40 41 41 42 43 43 44 44 45 45 46 46 46 46 46 46 46 46 46 46 46 46 46 46 46 46 46 46 46 45 45 45 45 45 45 45 45 45 45 45 44 44 44 44 44
36 37 38 38 39 40 40 41 42 43 43 44 45 45 46 46 47 47 47 47 47 47 47 47 47 47 47 47 47 47 46 46 47 46 46 46 45 45 45 45 45 45 44 44 45 45 44 44 44 44 43 43
38 38 39 39 40 41 42 42 43 44 44 45 46 46 47 47 48 48 49 49 49 49 49 48 48 48 47 47 47 47 47 47 47 46 46 46 46 46 45 45 45 44 44 44 44 44 44 43 43 43 42 42
39 40 40 41 41 42 43 43 44 45 45 46 46 47 48 48 49 49 50 50 50 50 50 49 49 49 48 48 47 47 47 47 47 47 47 46 46 46 45 45 44 44 44 44 44 44 43 43 43 42 42 41
40 41 41 42 42 43 44 44 45 46 46 47 47 48 48 49 49 50 50 50 51 51 51 50 50 50 49 49 48 48 48 47 47 47 47 46 46 46 45 44 44 43 43 43 43 42 43 42 42 41 41 40
41 42 42 43 43 44 45 45 46 47 47 48 48 48 49 49 49 50 50 51 52 52 52 52 51 51 51 50 49 49 49 48 48 48 47 47 46 45 45 44 44 43 42 42 42 42 42 41 41 40 40 39
42 42 43 44 44 45 46 46 47 48 48 49 49 49 49 49 50 50 51 52 52 53 53 53 53 53 52 52 51 50 50 49 49 49 48 47 46 46 45 44 44 43 42 42 42 41 40 39 39 39 38 36
43 43 44 44 45 46 47 47 48 48 49 49 50 50 51 51 51 51 52 52 53 54 54 55 55 54 54 53 52 52 51 50 50 49 49 48 47 46 45 44 44 43 42 42 41 40 39 38 38 37 36 36
44 44 45 45 46 47 47 47 48 48 49 49 50 51 52 52 52 53 53 54 54 55 55 56 56 56 55 55 54 53 52 52 51 50 49 48 47 46 45 44 44 43 42 41 41 40 39 38 37 37 36 36
45 45 45 46 46 46 47 47 47 48 49 49 50 51 52 53 53 54 54 55 55 55 56 56 56 57 57 56 56 55 54 53 51 50 50 49 48 47 46 45 44 43 42 42 42 42 41 39 38 38 37 36
46 46 46 45 45 46 46 47 47 48 49 50 51 52 53 53 54 54 55 55 55 56 56 56 57 57 57 57 57 56 55 54 52 51 50 49 48 47 46 45 45 44 43 42 42 42 41 41 40 39 38 36
Wind_Direction
303 304 305 305 304 304 304 303 302 302 300 298 295 293 291 290 290 289 288 287 286 287 287 288 289 290 290 291 290 290 290 289 289 289 289 288 288 288 288 288 288 288 288 288 288 287 287 285 284 283 280 278
302 302 303 304 303 303 303 303 303 302 301 299 297 295 293 291 291 290 288 287 287 288 288 288 289 290 290 290 290 290 289 289 289 289 289 288 289 289 289 289 289 288 288 288 288 288 288 287 286 284 282 279
300 301 302 302 302 302 303 303 303 303 301 300 299 297 295 294 293 291 289 288 288 289 289 289 289 290 289 289 289 289 289 288 288 288 288 288 288 288 289 289 289 289 289 289 289 289 289 288 287 285 283 281
299 299 301 301 301 301 302 302 302 302 301 300 299 298 297 296 294 292 290 290 289 289 289 289 289 289 289 288 289 289 289 288 287 287 287 287 287 287 288 289 289 289 289 289 289 289 289 288 287 286 285 282
298 298 300 300 300 300 301 301 300 301 300 299 299 298 297 297 295 293 292 291 290 289 288 289 289 289 288 288 288 288 288 288 288 288 287 287 287 288 289 288 289 289 289 289 289 289 289 289 288 287 285 284
297 298 299 299 299 299 299 299 299 298 298 298 298 297 297 296 295 294 293 292 290 289 288 288 288 288 288 288 288 288 288 288 288 288 287 287 288 288 289 288 289 289 289 289 289 289 290 289 288 287 286 284
297 297 297 297 298 298 298 297 297 297 297 296 296 296 296 296 295 294 294 292 291 290 289 288 288 288 288 288 287 287 287 288 288 287 287 288 288 288 288 288 288 289 289 289 289 290 290 289 289 288 286 285
296 296 296 297 297 297 297 297 296 296 296 295 295 295 295 295 295 294 294 293 291 290 289 288 288 288 288 287 287 287 288 288 288 287 287 287 287 287 287 287 288 288 289 289 289 290 290 290 289 288 287 285
296 296 296 297 297 296 296 296 296 296 295 295 295 294 295 295 295 294 294 294 292 291 290 289 288 288 288 287 287 287 288 287 287 287 287 287 287 286 287 287 288 288 289 289 289 290 290 290 289 288 288 286
296 296 296 297 297 296 296 296 296 296 295 295 295 295 295 295 295 295 295 294 293 292 291 290 289 288 288 288 288 287 287 287 287 287 287 287 286 286 287 287 287 288 288 289 289 290 290 290 289 288 288 287
296 296 296 297 297 296 297 297 297 296 296 296 295 295 295 295 295 295 295 295 294 293 292 291 290 289 289 288 288 288 287 287 287 287 287 287 287 287 287 287 287 287 288 288 289 289 289 289 289 289 288 287
297 297 297 297 297 297 297 297 297 297 296 296 295 296 295 294 295 294 295 295 295 294 292 291 290 290 289 288 288 288 287 287 287 287 287 287 287 287 287 287 287 287 288 288 288 289 289 289 289 289 288 287
298 298 298 298 298 298 298 297 297 297 296 296 296 295 295 294 294 294 294 294 294 294 293 292 291 290 289 289 288 287 287 287 287 287 287 287 287 287 287 287 287 287 287 288 288 288 288 288 288 288 288 288
300 300 300 299 299 299 298 297 297 296 296 295 295 295 294 294 293 293 294 294 294 294 293 292 291 290 289 288 288 287 287 287 287 287 287 287 287 287 286 286 286 287 287 287 288 288 288 288 288 288 288 288
300 300 300 300 299 299 298 298 297 296 295 295 294 294 293 293 292 292 293 293 293 293 293 292 291 290 290 288 288 287 287 287 287 287 287 287 287 286 286 286 286 286 287 287 287 288 288 288 288 288 288 288
301 301 300 300 299 299 298 297 297 296 295 294 294 293 292 292 292 292 292 292 292 292 292 292 291 290 290 289 288 287 287 287 286 287 287 287 286 286 286 286 286 286 286 286 287 287 287 287 288 288 288 288
300 300 300 299 299 298 298 297 296 296 295 294 294 293 292 292 292 291 291 291 292 292 292 292 291 291 290 289 288 287 287 286 286 286 286 286 286 286 286 286 286 286 286 286 286 286 286 287 287 287 288 288
300 299 299 299 298 298 297 297 296 296 295 295 294 293 293 292 292 292 291 291 291 292 292 292 291 291 290 289 288 287 287 286 286 286 286 286 286 286 286 285 285 285 285 285 286 286 286 286 287 287 287 288
300 300 299 299 298 298 297 296 296 295 295 294 294 293 293 293 292 292 291 291 291 291 291 292 292 291 290 289 288 287 287 286 286 286 286 286 285 285 285 285 285 285 285 285 285 285 286 286 286 287 287 288
302 301 300 300 299 298 297 297 296 296 295 294 294 293 293 292 292 292 291 291 291 291 291 291 291 291 290 289 288 287 286 286 286 286 285 285 285 285 284 284 284 284 284 284 285 285 285 285 286 286 287 287
303 302 301 300 299 298 298 297 297 296 295 295 294 293 293 292 292 291 291 290 290 290 290 290 290 290 290 289 288 287 286 286 285 285 285 284 284 284 284 284 284 284 284 284 284 284 284 285 286 286 286 286
304 303 302 301 300 299 298 298 297 296 296 295 294 293 292 291 291 291 290 290 290 290 290 289 289 289 289 288 288 287 286 285 285 284 284 284 283 283 283 283 283 283 283 283 283 284 284 284 285 285 285 285
304 304 303 302 301 300 299 298 297 297 296 295 294 293 292 291 291 290 290 290 289 289 289 289 289 289 288 288 287 287 286 285 284 284 283 283 283 283 282 282 282 282 283 283 283 283 284 284 284 285 285 285
305 304 303 302 301 301 300 299 298 297 296 295 294 294 292 292 291 290 290 289 289 289 288 288 288 288 288 287 287 286 286 285 284 283 283 283 283 282 282 282 282 282 282 282 282 283 283 283 284 284 284 284
305 304 303 302 301 301 300 300 299 298 297 296 295 294 293 292 291 290 289 289 288 288 288 288 288 287 287 286 286 286 285 285 284 283 283 282 282 282 282 281 281 281 281 281 282 282 283 283 283 283 283 282
306 304 303 302 301 301 301 300 299 298 298 296 295 294 293 292 291 290 289 289 288 288 288 288 287 287 286 286 285 285 284 284 283 282 282 281 281 281 281 280 280 279 279 280 280 282 283 283 283 282 282 281
306 305 303 302 302 302 301 300 300 299 298 297 295 294 293 293 292 291 290 289 288 288 287 287 287 286 285 285 284 284 283 283 282 282 281 280 280 280 280 279 279 278 278 278 279 281 281 282 283 283 282 280
307 306 305 304 303 303 302 301 301 300 299 297 296 295 294 293 292 291 291 290 289 288 287 286 286 285 284 284 283 283 282 281 281 280 280 279 278 278 278 278 278 277 276 276 277 278 279 280 281 281 281 280
308 308 307 306 305 304 303 302 302 301 300 299 297 296 295 293 292 291 290 290 289 288 287 286 285 284 283 283 282 282 281 280 279 279 278 277 277 276 276 276 276 276 275 274 274 276 277 279 279 278 279 281
309 308 308 307 306 305 304 303 303 302 301 300 299 297 296 294 292 291 290 290 289 288 287 286 284 283 282 282 281 280 279 278 278 278 277 276 275 275 274 274 275 274 274 273 273 273 274 276 277 277 279 280
309 308 308 307 306 306 305 304 304 303 302 302 301 299 297 295 294 292 291 290 289 288 287 286 284 282 281 281 280 279 278 277 276 276 276 275 274 273 273 272 272 272 272 272 272 272 272 274 275 276 277 277